Location: Allennes
(50.5389°N, 2.9540°E)
Time: 15:18:44
(UTC+00:00)

Daily predictions for brighter satellites

Satellite Brightness Start Highest point End
(mag) Time Altitude Azimuth Time Altitude Azimuth Time Altitude Azimuth
SL-24 R/B 4.3 19:48:52 10° NNE 19:53:33 87° W 19:57:53 10° SSW
Okean 1 Rocket 3.6 19:49:46 10° SSE 19:53:50 40° E 19:57:59 10° NNE
Meteor 2-3 Rocket 3.8 19:50:53 10° N 19:56:30 69° ENE 20:02:08 10° SSE
Cosmos 2084 3.4 19:53:08 10° SW 19:57:16 89° WNW 20:01:26 10° NE
CZ-4 R/B 2.0 19:56:25 10° S 19:59:58 51° W 20:03:31 10° NNW
Cosmos 1850 Rocket 4.3 19:55:42 10° NNW 20:00:48 55° ENE 20:05:51 10° SE
CZ-4B R/B 4.3 19:59:09 10° ESE 20:01:26 17° ENE 20:03:45 10° NNE
Cosmos 1782 4.3 19:59:41 10° SE 20:01:52 16° E 20:04:04 10° NE
ASTEX 1 3.8 20:01:20 10° S 20:06:16 71° W 20:11:14 10° N
SPOT 5 4.3 20:02:29 10° SSW 20:06:21 33° W 20:10:19 10° NNW
Cosmos 2056 Rocket 3.8 20:04:12 10° SSW 20:09:36 81° WNW 20:15:01 10° NNE
CZ-4B R/B 3.4 20:04:17 10° SSE 20:09:57 85° WSW 20:15:38 10° NNW
Cosmos 1833 Rocket 2.7 20:04:59 10° SSW 20:10:35 80° ESE 20:16:14 10° NNE
Cosmos 1110 Rocket 4.3 20:06:01 10° S 20:11:05 48° ESE 20:16:11 10° NNE
Cosmos 1802 Rocket 4.3 20:05:46 10° SSE 20:11:37 46° E 20:17:28 10° NNE
Cosmos 1624 Rocket 4.2 20:07:23 10° SSW 20:12:33 79° WNW 20:17:45 10° NNE
Terra 2.1 20:09:27 10° S 20:14:08 72° WSW 20:18:51 10° NNW
Gbstr 26 Del rocket 3.2 20:09:08 10° WNW 20:14:29 82° SSW 20:18:51 10° ESE
Cosmos 2360 Rocket 4.4 20:12:24 10° N 20:15:48 16° NNE 20:19:10 10° ENE
Sich 1 Rocket 3.6 20:12:22 10° S 20:16:38 59° E 20:20:57 10° NNE
SJ 16-02 3.9 20:17:03 10° WNW 20:19:43 16° W 20:22:22 10° SW
CZ-2C R/B 4.1 20:23:39 10° E 20:25:13 15° ENE 20:26:51 10° NNE
USA 229 DEB 4.5 20:18:19 10° NW 20:25:39 59° SW 20:33:43 10° SSE
USA 229 4.5 20:18:21 10° NW 20:25:43 60° SW 20:33:48 10° SSE
Cosmos 1743 2.5 20:23:18 10° N 20:26:14 45° ENE 20:28:34 14° SSE
SKYMED 3 4.4 20:26:06 10° NNE 20:30:03 84° WNW 20:34:00 10° SSW
Meteor 1-27 4.5 20:25:41 10° SSE 20:31:06 49° E 20:36:30 10° NNE
Cosmos 44 Rocket 3.7 20:26:24 10° S 20:31:10 44° ESE 20:36:05 10° NE
ISS -2.5 20:29:25 10° SSW 20:31:59 21° SE 20:34:35 10° E
Cosmos 1459 Rocket 4.0 20:26:20 10° S 20:32:35 84° E 20:38:47 10° N
Cosmos 2219 Rocket 4.5 20:30:11 10° N 20:33:14 15° NNE 20:36:18 10° ENE
Cosmos 2100 Rocket 4.1 20:29:56 10° S 20:36:09 85° W 20:42:30 10° N
Ariane Rocket 3.6 20:32:20 13° SE 20:36:28 43° ENE 20:41:14 10° N
ADEOS 4.3 20:34:15 10° S 20:39:19 53° W 20:44:27 10° NNW
ATLAS 2AS CENTAUR R/B 3.2 20:32:56 10° WSW 20:39:50 66° NW 20:46:38 10° NE
Cosmos 2369 4.1 20:36:12 10° NNW 20:41:50 54° NE 20:46:24 15° SE
BREEZE-M DEB (TANK) 3.9 20:39:08 10° W 20:42:00 39° SSW 20:47:10 15° SE
SL-4 R/B 3.3 20:39:03 10° W 20:42:13 25° SW 20:44:44 14° SSE
Spot 2 Rocket 3.6 20:37:22 10° S 20:42:22 75° WSW 20:47:26 10° NNW
Cosmos 2322 Rocket 4.0 20:39:33 10° NNW 20:43:48 21° NE 20:48:04 10° E
MOS 1-B 4.5 20:40:13 10° SSE 20:46:00 78° WSW 20:51:51 10° NNW
Cosmos 2082 Rocket 2.8 20:41:38 10° S 20:46:47 36° ESE 20:51:57 10° NE
Okean 2 Rocket 3.8 20:42:32 10° SSW 20:46:56 57° WNW 20:51:23 10° N
USA 305 2.8 20:44:05 10° WNW 20:48:11 68° NNE 20:51:08 15° ESE
Cosmos 2151 4.2 20:47:12 10° NNE 20:50:41 26° ENE 20:52:53 17° ESE
Cosmos 1626 Rocket 4.2 20:53:25 10° N 20:57:33 41° ENE 21:00:04 21° SE
Cosmos 1607 4.2 20:51:51 10° S 20:57:38 46° ESE 21:03:34 10° NE
Cosmos 2233 Rocket 4.0 20:51:35 10° S 20:57:42 64° E 21:03:49 10° NNE
Cosmos 2228 2.9 20:55:36 15° S 20:58:56 59° E 21:03:00 10° NNE
USA 186 2.6 20:58:27 14° SSW 21:00:24 36° W 21:02:58 10° NNW
Timation 1 Rocket 4.4 20:55:03 10° SSW 21:01:04 86° WNW 21:07:08 10° NNE
Okean O Rocket 2.3 20:57:32 10° S 21:01:42 48° W 21:05:53 10° NNW
Tsikada Rocket 4.0 20:57:34 10° N 21:03:48 82° E 21:08:51 16° SSE
Cosmos 1697 Rocket 4.1 21:01:28 10° NW 21:06:20 31° WSW 21:11:09 10° SSW
CZ-4C R/B 1.7 21:04:06 10° SW 21:08:20 85° SE 21:13:51 10° NE
Cosmos 1725 Rocket 4.1 21:02:31 10° SSW 21:08:48 79° W 21:15:06 10° N
Cosmos 1452 Rocket 3.5 21:04:08 10° SSW 21:09:22 88° WNW 21:14:38 10° NNE
COSMOS 2406 4.2 21:07:29 20° SE 21:10:00 28° ESE 21:14:47 10° NE
SL-16 R/B 3.0 21:05:37 10° NNW 21:11:01 42° NE 21:14:58 17° ESE
Okean-O 3.8 21:10:35 10° SSW 21:14:39 38° W 21:18:46 10° NNW
ATLAS 3B R/B 3.7 21:07:44 10° NW 21:14:55 43° WSW 21:20:47 14° S
CZ-4B R/B 3.4 21:19:07 21° S 21:22:19 77° WSW 21:27:08 10° NNW
Cosmos 2333 Rocket 2.9 21:18:28 10° NNW 21:23:57 46° NE 21:27:39 20° ESE
Cosmos 1455 Rocket 3.9 21:21:04 10° SSW 21:25:21 50° WNW 21:29:40 10° N
Cosmos 1302 Rocket 3.9 21:21:53 10° SSW 21:27:03 83° ESE 21:32:16 10° NNE
Cosmos 2098 Rocket 4.4 21:25:32 24° SE 21:27:20 30° E 21:31:23 10° NNE
Cosmos 2016 Rocket 4.4 21:21:43 10° SSW 21:27:57 64° WNW 21:34:08 10° N
Cosmos 1980 Rocket 3.2 21:29:21 10° NW 21:34:38 40° WSW 21:38:33 17° S
CZ-4B R/B 3.5 21:33:11 21° SSW 21:34:56 38° W 21:38:08 10° NNW
Cosmos 2061 Rocket 4.0 21:29:50 12° S 21:35:40 84° W 21:41:59 10° N
Cosmos 1782 3.7 21:32:58 11° SW 21:36:09 41° WNW 21:39:31 10° N
Cosmos 1544 Rocket 3.5 21:35:33 29° S 21:37:39 66° E 21:41:58 10° NNE
SPOT 3 Rocket 4.2 21:34:29 17° S 21:38:14 50° W 21:43:16 10° NNW
Cosmos 724 4.3 21:32:14 10° SW 21:38:17 87° NW 21:44:14 10° NE
NOSS 3-3 (A) 3.7 21:34:27 12° SSW 21:39:10 55° ESE 21:45:11 10° NE
Cosmos 1933 3.3 21:44:19 41° SSE 21:45:20 57° E 21:49:05 10° NNE
Cosmos 2084 Rocket 3.6 21:44:48 10° NW 21:48:56 58° SW 21:50:19 38° S
Cosmos 1758 Rocket 3.7 21:47:19 10° NNW 21:51:40 67° W 21:53:42 30° S
Helios 1B rocket 3.0 21:51:51 30° E 21:52:34 33° ENE 21:55:46 10° N
CZ-2C R/B 3.3 21:55:17 28° WSW 21:55:47 30° W 21:58:18 10° NW
Cosmos 1464 Rocket 4.2 21:53:23 29° SSE 21:56:19 53° E 22:02:17 10° NNE
Cosmos 1513 Rocket 4.4 21:56:21 25° S 22:00:11 80° E 22:06:22 10° NNE
Gbstr 26 Del rocket 4.1 21:56:18 10° W 22:00:16 27° SW 22:00:52 26° SSW
Cosmos 2360 Rocket 2.8 21:55:39 10° NNW 22:01:11 50° NE 22:04:14 25° ESE
Meteor 2-10 4.4 21:58:42 10° N 22:04:24 65° ENE 22:06:57 33° SE
NOSS 3-3 (C) 3.6 22:02:52 17° SSW 22:07:02 70° SE 22:13:19 10° NE
Cosmos 1825 Rocket 3.8 22:03:46 10° N 22:08:02 56° ENE 22:09:11 42° SE
ALOS 2 4.1 22:06:32 21° E 22:08:09 26° ENE 22:11:48 10° N
ISS -3.9 22:05:05 10° WSW 22:08:14 72° SSW 22:08:14 72° SSW
ARIANE 5 R/B 3.8 22:07:11 25° E 22:08:44 31° ENE 22:12:40 10° N
Geosat 3.9 22:04:00 10° NNE 22:09:03 85° ESE 22:12:24 21° SSW
Cosmos 1953 Rocket 4.5 22:05:34 10° N 22:09:38 36° ENE 22:10:47 30° ESE
Cosmos 1072 Rocket 4.5 22:08:18 30° S 22:11:32 74° E 22:17:50 10° NNE
USA 305 3.2 22:09:43 10° WNW 22:13:09 36° SW 22:13:09 36° SW
Ariane Rocket 4.3 22:12:25 17° SSW 22:15:28 31° W 22:19:58 10° NNW
BREEZE-M R/B 4.3 22:06:32 10° W 22:15:42 89° N 22:21:22 10° E
Cosmos 1602 Rocket 3.7 22:13:05 10° NNW 22:17:20 62° W 22:18:42 40° SSW
Cosmos 2219 Rocket 3.0 22:13:17 10° NNW 22:18:42 45° NE 22:21:48 24° ESE
DEBRIS 4.1 22:15:00 10° W 22:18:55 83° S 22:33:38 10° E
NOSS 3-4 (A) 3.8 22:14:44 10° NW 22:21:18 78° NE 22:26:01 26° SE
NOSS 3-4 (C) 3.8 22:15:20 10° NW 22:21:56 77° NE 22:26:40 25° SE
Cosmos 1437 Rocket 3.0 22:21:47 40° SW 22:22:43 54° WNW 22:26:14 10° N
Cosmos 1461 3.6 22:26:32 32° E 22:26:32 32° E 22:28:59 10° NE
Cosmos 2151 4.1 22:23:46 10° NNW 22:27:31 34° W 22:28:56 26° SW
Cosmos 1428 Rocket 4.4 22:22:17 10° N 22:28:35 89° E 22:31:20 36° S
Cosmos 2322 Rocket 2.2 22:23:04 10° NNW 22:28:46 79° ENE 22:31:03 38° SE
Cosmos 2034 Rocket 4.1 22:27:37 35° SSE 22:30:18 64° E 22:36:36 10° NNE
Cosmos 2082 Rocket 3.1 22:25:13 10° SW 22:30:44 48° NW 22:36:17 10° NNE
Cosmos 220 Rocket 3.7 22:32:36 63° SSE 22:33:03 71° ESE 22:37:08 10° NNE
Cosmos 1707 4.1 22:38:21 19° NE 22:38:21 19° NE 22:39:38 10° NE
Meteor 1-5 Rocket 4.4 22:32:05 10° NNW 22:37:42 68° W 22:40:03 36° SSW
Cosmos 1536 3.6 22:34:29 10° N 22:37:51 33° ENE 22:38:06 33° E
USA 234 3.3 22:32:56 10° ENE 22:39:19 52° SE 22:42:49 27° SSW
COSMOS 2428 4.3 22:37:04 10° NNW 22:42:00 28° NE 22:46:33 11° E
Okean 1-7 Rocket 4.0 22:41:43 10° NNW 22:46:03 53° W 22:47:08 41° SW
Cosmos 1763 Rocket 3.9 22:45:39 42° SE 22:46:35 46° ESE 22:51:38 10° NE
Cosmos 1503 Rocket 3.9 22:42:17 10° NNW 22:47:32 90° WSW 22:49:02 48° SSE
Cosmos-2242 3.2 22:47:28 48° ESE 22:47:42 48° E 22:51:42 10° NNE
Helios 1A 3.3 22:43:52 10° N 22:47:43 56° WNW 22:48:44 42° WSW
Cosmos 1777 Rocket 4.0 22:42:33 10° NNW 22:47:47 72° WSW 22:49:16 47° S
Cosmos 2278 3.9 22:42:13 10° NW 22:47:49 59° WSW 22:49:38 40° S
CZ-2C R/B 4.4 22:45:45 10° NE 22:50:35 28° E 22:51:56 26° ESE
Cosmos 990 Rocket 4.0 22:45:43 10° NNW 22:50:53 71° ENE 22:52:30 43° SE
Cosmos 1805 4.2 22:48:06 10° NNW 22:51:00 29° W 22:51:00 29° W
COSMOS 2406 3.7 22:49:26 17° SW 22:53:54 61° NW 22:59:38 10° NNE
Cosmos 1606 Rocket 3.8 22:52:45 44° SW 22:53:55 62° WNW 22:58:14 10° N
ARGOS Delta rocket 4.4 22:50:14 10° NNE 22:55:04 47° E 22:56:07 41° SE
SL-16 R/B 2.9 22:49:49 10° NW 22:55:07 42° WSW 22:56:47 33° SSW
USA 290 3.5 22:56:48 32° NE 22:56:48 32° NE 22:58:46 10° NE
CZ-4C R/B 4.0 22:52:59 10° W 22:57:16 30° NNW 23:02:39 10° NE
Cosmos 1354 Rocket 4.0 22:52:28 10° NNW 22:57:45 79° ENE 22:59:19 46° SE
Cosmos 1486 Rocket 4.4 22:54:24 10° NNW 22:59:30 52° WSW 23:00:50 41° SSW
Cosmos 1634 Rocket 4.1 22:57:50 40° SSE 22:59:56 61° E 23:06:01 10° NNE
Nadezhda 4 Rocket 4.5 22:54:19 10° NNW 23:00:12 50° W 23:02:51 31° SSW
Cosmos 1766 3.2 22:58:31 10° N 23:01:17 60° NNE 23:01:17 60° NNE
Cosmos 2279 Rocket 4.5 23:01:48 35° SE 23:03:52 47° E 23:09:49 10° NNE
Cosmos 1470 3.8 23:01:27 10° N 23:04:12 29° ENE 23:04:12 29° ENE
Cosmos 2098 Rocket 4.3 23:02:09 25° SW 23:04:34 41° WNW 23:08:56 10° N
SeaSat 1 3.5 23:03:53 23° ESE 23:06:30 41° NE 23:11:04 10° NNW
Cosmos 1726 Rocket 3.6 23:06:21 51° WSW 23:07:01 60° WNW 23:11:02 10° N
Cosmos 2333 Rocket 3.0 23:02:58 10° NW 23:08:10 38° WSW 23:09:39 32° SW
Cosmos 2221 3.8 23:09:57 27° E 23:10:05 27° E 23:13:36 10° NNE
Cosmos 1076 Rocket 4.0 23:06:56 10° NNW 23:11:02 46° W 23:11:38 43° WSW
Meteor 2-2 Rocket 4.2 23:10:21 46° S 23:12:02 74° E 23:17:46 10° NNE
Cosmos 1842 4.2 23:13:51 29° ENE 23:13:51 29° ENE 23:15:57 10° NNE
BREEZE-M DEB (TANK) 3.5 23:09:11 10° W 23:17:19 69° S 23:22:14 10° ESE
CZ-2C R/B 3.3 23:16:22 31° ESE 23:18:27 47° ENE 23:23:27 10° N
Cosmos 1833 4.1 23:17:41 48° S 23:19:14 70° ESE 23:24:51 10° NNE
Spot 4 4.0 23:23:21 49° SW 23:24:13 57° W 23:28:57 10° NNW
Okean 1 4.4 23:23:58 30° W 23:24:25 31° WNW 23:27:39 10° N
KORONAS-FOTON 3.9 23:25:14 59° NNE 23:25:14 59° NNE 23:28:07 10° NNE
Cosmos 2026 Rocket 4.3 23:18:39 10° NNW 23:24:53 58° W 23:27:17 37° SSW
Helios 1B rocket 3.9 23:25:48 21° W 23:25:48 21° W 23:28:22 10° NW
SAR-Lupe-2 3.8 23:26:37 56° NW 23:26:37 56° NW 23:29:26 10° NNW
Cosmos 1975 3.2 23:24:41 10° N 23:28:15 46° ENE 23:28:16 46° ENE
Aureole 1 Rocket 3.7 23:24:36 10° NNW 23:29:53 89° ENE 23:32:03 43° SSE
Cosmos 2266 Rocket 4.4 23:26:03 10° N 23:31:58 51° ENE 23:34:28 32° SE
Cosmos 2322 4.1 23:26:52 10° NNW 23:32:32 59° NE 23:35:16 30° ESE
Cosmos 1812 Rocket 4.4 23:34:01 36° ESE 23:34:26 36° E 23:38:29 10° NNE
Cosmos 2297 Rocket 4.0 23:33:58 15° ESE 23:35:00 16° E 23:38:19 10° ENE
Cosmos 44 3.6 23:30:33 10° NW 23:36:00 75° NE 23:38:07 37° SE
Cosmos 1271 Rocket 3.0 23:38:07 49° ENE 23:38:07 49° ENE 23:40:55 10° NNE
Cosmos 372 Rocket 3.9 23:37:07 10° NNW 23:42:17 85° ENE 23:43:34 52° SSE
RESURS DK-1 3.3 23:39:19 10° NNW 23:43:07 42° NE 23:44:13 34° E
Cosmos 1937 Rocket 4.0 23:38:29 10° NNW 23:43:32 52° ENE 23:45:41 31° ESE
ALOS 2 3.2 23:43:55 41° WSW 23:44:18 42° W 23:48:30 10° NNW
ARIANE 5 R/B 3.5 23:44:33 34° WSW 23:44:58 35° W 23:49:03 10° NNW
Cosmos 2360 Rocket 3.1 23:39:56 10° NW 23:44:59 33° WSW 23:45:58 31° SW
Meteor 1-11 Rocket 4.0 23:41:44 10° N 23:47:27 61° ENE 23:49:32 38° SE
GP-B 3.1 23:44:20 10° N 23:48:42 64° E 23:49:14 58° SE
Cosmos 2058 Rocket 3.6 23:48:53 42° WSW 23:49:40 47° WNW 23:53:54 10° N
Cosmos 468 Rocket 3.9 23:51:08 53° S 23:52:23 81° ESE 23:57:40 10° NNE
